DELFI-C3 (DO-64)

Last updated on Tue Nov 14 2023 00:03:01 GMT+0000 (Greenwich Mean Time)

1 32789U 08021G 23317.53274184 .10422477 24509-5 24255-2 0 9992 2 32789 97.2564 341.6186 0007289 235.2976 124.7632 16.29829842850574
UTC large
Height (km)
Speed (km/s)
/
Latitude / Longitude
Inclination (degrees)
Orbital Period (minutes)
Azimuth
Elevation
Range (km)
Doppler Factor

Next 0 passes for location: London (51.5072 / 0.1276)

Sorry there are no passes over London.